Location: Unspecified
(29.5627°N, 0.0000°E)
Time: 06:58:51
(UTC+00:00)

S-56A Canister/Altair - All Passes

Search period start: 04 April 2026 00:00
Search period end: 14 April 2026 00:00
Orbit: 632 x 2485 km, 38.9° (Epoch: 28 March)

Date Brightness Start Highest point End Pass type
(mag) Time Alt. Az. Time Alt. Az. Time Alt. Az.
4 Apr - 05:54:32 10° SSW 06:06:18 38° SE 06:19:27 10° ENE daylight
4 Apr - 07:57:36 10° WSW 08:12:09 86° SSE 08:26:39 10° ENE daylight
4 Apr - 10:04:52 10° W 10:19:51 61° NNW 10:32:24 10° ENE daylight
4 Apr - 12:13:49 10° WNW 12:27:53 58° N 12:37:59 10° E daylight
4 Apr - 14:21:52 10° WNW 14:34:15 84° SSW 14:42:18 10° ESE daylight
4 Apr - 16:30:27 10° W 16:37:37 24° SW 16:43:02 10° S daylight
5 Apr - 05:19:59 10° S 05:30:46 33° SE 05:43:08 10° ENE visible
5 Apr - 07:22:09 10° SW 07:36:11 79° SSE 07:51:00 10° ENE daylight
5 Apr - 09:28:45 10° W 09:43:44 64° NNW 09:57:00 10° ENE daylight
5 Apr - 11:37:32 10° WNW 11:52:00 58° N 12:02:49 10° E daylight
5 Apr - 13:45:43 10° WNW 13:58:53 87° NNE 14:07:33 10° ESE daylight
5 Apr - 15:53:59 10° WNW 16:02:47 31° SW 16:09:06 10° S daylight
6 Apr - 04:45:41 10° S 04:55:19 27° SE 05:06:33 10° E visible
6 Apr - 06:46:51 10° SW 07:00:17 72° SE 07:15:13 10° ENE daylight
6 Apr - 08:52:47 10° W 09:07:37 68° NNW 09:21:30 10° ENE daylight
6 Apr - 11:01:16 10° WNW 11:16:00 57° N 11:27:34 10° E daylight
6 Apr - 13:09:32 10° WNW 13:23:20 81° NNE 13:32:42 10° ESE daylight
6 Apr - 15:17:36 10° WNW 15:27:51 39° SW 15:34:57 10° SSE daylight
7 Apr - 04:11:41 10° S 04:19:59 22° SE 04:29:38 10° E visible
7 Apr - 06:11:43 10° SW 06:24:28 65° SE 06:39:20 10° ENE daylight
7 Apr - 08:16:57 10° WSW 08:31:28 71° NNW 08:45:55 10° ENE daylight
7 Apr - 10:25:03 10° WNW 10:39:56 58° N 10:52:12 10° ENE daylight
7 Apr - 12:33:21 10° WNW 12:47:41 75° NNE 12:57:45 10° ESE daylight
7 Apr - 14:41:18 10° WNW 14:52:47 48° SW 15:00:38 10° SSE daylight
8 Apr - 03:38:11 10° SSE 03:44:45 17° SE 03:52:15 10° E visible
8 Apr - 05:36:45 10° SW 05:48:44 58° SE 06:03:18 10° ENE daylight
8 Apr - 07:41:16 10° WSW 07:55:21 76° NNW 08:10:14 10° ENE daylight
8 Apr - 09:48:55 10° W 10:03:47 58° N 10:16:44 10° ENE daylight
8 Apr - 11:57:10 10° WNW 12:11:54 71° NNE 12:22:41 10° ESE daylight
8 Apr - 14:05:01 10° WNW 14:17:36 57° SW 14:26:11 10° SE daylight
8 Apr - 16:17:05 10° WSW 16:20:19 12° WSW 16:23:14 10° SW daylight
9 Apr - 03:05:46 10° SE 03:09:36 12° ESE 03:13:45 10° ESE visible
9 Apr - 05:01:57 10° SSW 05:13:07 50° SE 05:27:10 10° ENE visible
9 Apr - 07:05:44 10° WSW 07:19:17 81° NNW 07:34:28 10° ENE daylight
9 Apr - 09:12:53 10° W 09:27:35 59° N 09:41:11 10° ENE daylight
9 Apr - 11:21:01 10° WNW 11:36:00 67° NNE 11:47:30 10° E daylight
9 Apr - 13:28:48 10° WNW 13:42:16 66° SW 13:51:34 10° SE daylight
9 Apr - 15:39:05 10° W 15:45:28 17° SW 15:50:41 10° SSW daylight
10 Apr - 04:27:19 10° SSW 04:37:38 43° SE 04:50:53 10° ENE visible
10 Apr - 06:30:21 10° WSW 06:43:16 86° NNW 06:58:35 10° ENE daylight
10 Apr - 08:36:57 10° W 08:51:22 60° N 09:05:31 10° ENE daylight
10 Apr - 10:44:54 10° WNW 11:00:00 65° NNE 11:12:11 10° E daylight
10 Apr - 12:52:36 10° WNW 13:06:48 75° SW 13:16:50 10° SE daylight
10 Apr - 15:01:58 10° W 15:10:31 23° SW 15:17:10 10° S daylight
11 Apr - 03:52:53 10° SSW 04:02:16 36° SE 04:14:28 10° ENE visible
11 Apr - 05:55:06 10° WSW 06:07:21 88° SSE 06:22:38 10° ENE daylight
11 Apr - 08:01:09 10° W 08:15:09 62° N 08:29:45 10° ENE daylight
11 Apr - 10:08:51 10° WNW 10:23:54 63° N 10:36:45 10° E daylight
11 Apr - 12:16:26 10° WNW 12:31:12 83° SSW 12:41:57 10° SE daylight
11 Apr - 14:25:11 10° WNW 14:35:29 29° SW 14:43:16 10° S daylight
12 Apr - 03:18:39 10° S 03:27:02 30° SE 03:37:53 10° ENE visible
12 Apr - 05:20:01 10° SW 05:31:33 81° SSE 05:46:36 10° ENE daylight
12 Apr - 07:25:28 10° W 07:38:58 64° NNW 07:53:53 10° ENE daylight
12 Apr - 09:32:53 10° WNW 09:47:44 61° N 10:01:11 10° E daylight
12 Apr - 11:40:20 10° WNW 11:55:27 90° SSW 12:06:57 10° ESE daylight
12 Apr - 13:48:36 10° WNW 14:00:21 36° SW 14:09:05 10° SSE daylight
13 Apr - 02:44:42 10° S 02:51:55 23° SE 03:01:04 10° E visible
13 Apr - 04:45:04 10° SW 04:55:51 73° SE 05:10:29 10° ENE visible
13 Apr - 06:49:55 10° W 07:02:48 66° NNW 07:17:56 10° ENE daylight
13 Apr - 08:57:00 10° WNW 09:11:31 60° N 09:25:30 10° E daylight
13 Apr - 11:04:18 10° WNW 11:19:36 84° NNE 11:31:48 10° ESE daylight
13 Apr - 13:12:09 10° WNW 13:25:04 44° SW 13:34:41 10° SSE daylight
